ECMWFFLT2_500_spd_057.txt.gz
Wind_Speed
59 59 58 56 57 58 57 56 56 55 51 48 50 50 50 52 55 58 57 54 51 39 27 30 36 38 38 38 39 40 39 38 38 39 38 36 34 33 32 30 26 24 23 21 21 21 19 17 16 18 21 24 27 28 26 26 25 26 27 28 29 30 30
61 60 59 57 56 58 58 57 56 54 52 52 53 53 53 53 55 59 57 52 49 41 31 32 36 38 39 39 40 41 40 40 39 39 39 37 35 34 34 32 29 27 26 24 23 22 21 18 17 19 22 25 28 28 27 26 26 26 27 29 30 31 31
61 60 60 58 56 57 58 58 56 56 55 56 56 57 56 55 57 59 56 52 48 42 34 32 35 37 38 39 40 41 41 41 39 38 38 37 36 35 35 33 31 30 29 28 26 25 24 22 20 21 24 26 28 29 28 27 27 28 29 30 31 32 32
62 61 61 60 57 57 58 58 58 58 58 57 56 57 57 55 57 57 54 51 47 41 33 31 33 36 37 39 41 42 41 40 39 37 37 37 37 36 35 34 32 30 30 30 28 27 26 24 22 23 25 27 28 30 30 29 28 28 29 30 31 32 33
62 63 62 61 58 57 59 60 61 60 59 58 57 58 57 55 56 56 53 50 46 39 34 31 31 35 38 39 41 42 41 40 38 38 38 38 38 36 35 34 32 30 30 30 30 29 28 27 26 26 27 28 29 30 30 30 29 28 28 28 30 31 32
62 64 63 61 59 59 60 62 63 62 61 60 60 60 59 58 58 57 54 52 45 38 36 34 31 33 37 38 40 41 41 39 38 38 38 39 38 37 36 34 31 30 30 30 31 31 31 31 29 28 28 28 30 30 30 30 30 29 28 28 28 29 30
60 62 62 61 60 59 61 62 64 63 63 63 62 62 61 59 59 58 56 55 47 38 37 35 32 33 37 38 40 41 40 39 37 37 37 38 38 37 36 35 33 31 31 31 32 33 33 32 31 29 29 29 30 30 30 30 30 29 29 29 28 29 29
56 59 61 62 60 59 61 63 64 65 65 64 63 63 62 60 60 59 58 57 47 38 37 36 33 33 37 38 39 41 41 40 38 37 38 38 37 37 36 35 34 32 32 32 33 34 33 33 33 31 30 30 30 31 30 30 29 30 31 30 30 29 29
53 55 59 62 61 60 61 63 64 65 66 66 63 63 63 62 61 59 58 58 47 37 36 36 33 33 36 38 39 40 41 41 40 39 39 37 36 35 36 35 33 32 32 32 31 32 33 34 35 33 31 31 31 31 30 29 29 30 31 32 31 30 30
52 55 60 64 64 62 61 63 64 65 67 66 65 64 64 63 62 58 58 58 47 36 34 35 34 34 35 37 39 39 40 42 42 41 40 38 36 36 36 34 32 31 31 31 30 30 32 35 36 34 32 30 30 31 30 30 30 30 31 32 32 31 31
51 54 60 65 65 64 63 64 65 66 67 67 67 66 65 64 62 59 58 56 45 36 34 35 35 36 36 37 38 39 40 42 43 43 42 40 39 37 36 33 31 30 30 30 30 30 32 35 37 35 32 30 30 30 31 31 31 31 31 32 33 33 32
50 51 57 63 64 63 63 64 65 66 68 68 69 68 66 64 62 60 59 55 44 36 36 36 36 37 38 38 39 41 42 43 44 44 45 44 43 40 37 35 33 31 30 30 30 31 31 34 37 36 34 32 31 31 31 32 32 31 32 32 33 34 33
49 50 55 61 64 63 63 64 64 66 68 69 69 69 67 65 63 61 59 53 44 38 36 35 35 38 39 40 41 43 44 45 45 46 47 48 46 43 41 39 36 34 33 32 32 31 31 33 35 35 34 33 32 32 33 33 33 33 33 33 33 34 34
49 49 53 59 64 64 63 63 64 65 68 70 70 69 67 66 65 62 58 52 44 39 35 33 34 37 40 41 42 44 46 48 49 49 49 49 48 47 45 42 40 37 36 35 35 33 32 32 33 34 34 34 34 34 34 34 34 34 33 34 34 34 34
47 48 51 56 62 65 64 63 63 65 68 69 69 69 68 68 66 63 58 50 43 40 36 33 33 38 42 43 44 46 48 50 51 51 51 50 50 49 48 47 46 42 39 38 38 37 34 33 33 33 34 34 34 36 36 35 35 34 34 34 34 34 34
47 46 50 54 59 64 66 64 63 65 67 68 69 68 68 69 67 63 58 50 42 40 37 34 35 39 42 43 44 45 48 51 52 53 52 50 49 50 51 51 49 46 44 42 41 39 37 35 34 33 34 35 35 37 38 36 35 35 34 34 34 33 34
47 45 48 53 57 62 67 66 62 63 66 68 68 68 69 70 67 63 59 49 42 41 37 35 39 42 42 43 43 43 46 49 50 49 48 49 50 52 52 50 46 45 45 45 43 40 38 37 35 33 34 36 35 36 37 37 36 35 34 33 33 34 35
46 45 47 51 55 61 68 66 60 62 66 67 67 69 70 70 66 63 59 50 43 42 38 37 41 42 41 41 41 41 44 46 46 47 48 49 50 50 48 46 44 44 46 46 45 41 39 39 36 33 35 37 36 36 38 38 36 35 34 33 34 34 36
44 45 47 51 56 62 68 66 60 62 66 66 67 69 70 70 66 63 59 51 45 43 41 39 40 40 39 39 38 39 42 44 46 46 45 44 43 41 40 40 41 43 46 48 47 44 41 39 36 35 38 38 35 36 38 38 36 35 34 34 34 35 36
42 44 46 51 57 62 66 66 62 62 65 66 67 69 71 70 66 63 59 51 46 45 43 40 40 40 38 38 37 37 39 41 41 38 35 33 32 32 34 35 36 40 44 47 48 46 42 39 37 38 39 36 34 36 39 39 37 35 35 35 35 36 36
40 42 44 48 54 59 63 66 64 62 64 66 66 68 71 70 66 63 59 52 48 47 44 42 42 41 40 38 37 36 37 36 33 29 27 27 27 29 32 33 34 36 40 45 48 46 42 39 38 39 39 36 35 38 39 38 37 36 36 35 35 35 35
39 40 42 45 52 58 61 65 65 63 63 65 66 67 70 69 65 63 59 52 49 48 45 44 45 44 43 41 39 38 36 33 29 28 27 27 26 27 29 31 32 34 37 42 45 44 42 39 39 39 38 36 37 39 39 38 37 36 36 35 35 34 34
40 40 40 44 51 57 58 62 65 63 62 64 65 65 68 68 65 62 58 53 51 49 46 46 47 48 45 43 41 39 36 33 32 31 29 27 26 26 27 27 28 31 35 39 42 42 40 38 37 38 38 37 38 38 38 37 37 36 35 34 34 33 33
40 40 39 41 49 54 55 59 65 63 61 63 65 64 68 68 64 61 58 54 52 50 47 47 50 50 48 44 41 39 37 37 37 35 31 27 25 24 25 26 28 31 35 37 39 39 38 36 36 38 38 38 38 38 37 37 37 36 35 34 34 33 33
39 38 38 40 47 51 52 56 64 63 60 62 65 66 67 66 62 60 58 55 52 50 48 49 52 52 49 45 42 40 41 42 41 38 34 29 25 24 23 25 28 32 34 35 37 37 36 37 38 40 39 39 38 38 38 37 36 36 35 35 33 32 31
37 38 38 41 46 49 49 52 61 64 61 63 66 66 64 64 62 58 57 56 53 50 49 51 54 55 51 46 44 44 46 46 43 40 36 32 29 26 24 24 27 32 34 35 37 37 38 39 40 40 40 40 39 38 37 35 35 35 34 33 31 30 29
36 38 40 42 46 47 47 50 57 63 63 63 66 65 62 62 61 57 56 57 54 51 51 52 54 56 53 48 47 48 49 49 46 42 38 35 32 29 26 24 26 31 34 36 37 38 39 39 39 40 40 40 40 37 34 33 34 34 32 29 28 27 27
36 39 41 43 44 44 45 48 54 61 63 62 62 62 60 60 59 54 54 57 55 52 52 53 55 57 55 50 49 51 52 51 48 44 41 37 35 33 29 24 26 31 34 36 37 38 38 37 36 37 39 41 40 36 31 32 33 32 30 28 27 27 27
34 39 41 41 41 41 43 47 53 60 63 60 59 60 59 59 58 53 51 56 56 53 52 53 55 58 57 53 52 53 54 53 49 47 44 41 38 37 31 26 28 32 35 36 37 37 37 34 32 32 36 40 40 35 32 33 34 34 33 32 31 30 29
32 36 39 40 40 39 42 47 53 59 61 58 57 58 58 58 58 53 49 54 57 55 53 54 57 59 58 55 54 55 56 54 52 49 47 44 42 39 33 29 31 36 38 38 38 38 36 33 29 28 30 33 35 35 35 35 36 37 37 36 34 33 32
31 34 36 39 40 40 41 47 53 57 58 55 55 58 58 57 57 53 50 52 56 57 55 55 58 60 60 58 56 56 57 56 54 52 50 47 45 42 36 32 34 39 41 41 40 40 37 32 28 27 27 28 31 35 36 37 38 39 40 38 37 35 35
32 33 35 38 40 40 42 46 52 56 57 53 54 57 58 56 56 54 51 51 55 58 56 55 58 61 62 61 59 58 58 58 56 53 51 49 46 43 37 34 36 41 44 44 42 41 38 34 31 28 26 27 31 35 36 37 37 38 39 39 40 40 39
32 33 34 37 39 41 44 46 51 56 57 54 53 55 56 56 55 53 50 51 55 59 58 57 59 62 63 63 62 60 60 59 57 55 52 50 47 43 39 36 37 42 46 46 45 44 42 38 35 32 30 29 31 33 35 36 36 37 38 38 40 42 43
31 32 34 36 38 41 45 47 51 54 55 54 53 54 55 54 53 52 49 49 54 60 60 59 60 62 63 64 64 63 61 60 58 56 54 51 48 44 40 39 39 42 47 48 46 46 45 42 38 36 34 31 31 32 34 35 36 37 38 38 39 40 42
30 31 33 35 37 41 45 48 52 54 55 55 53 54 55 54 51 50 49 50 54 59 62 62 61 61 62 64 64 63 62 61 60 57 55 53 49 45 42 41 41 43 47 49 48 47 47 45 42 39 37 35 33 33 35 36 38 39 40 40 41 41 41
27 30 33 35 37 40 43 48 52 53 54 55 54 55 56 54 50 50 50 51 55 59 61 62 62 61 61 62 63 62 62 62 62 59 56 54 51 47 44 43 43 44 47 49 49 49 48 47 44 42 39 37 36 36 37 39 41 41 42 43 43 43 42
24 28 31 34 37 39 42 46 50 50 52 55 56 58 57 53 50 52 53 53 54 58 61 62 62 61 61 61 62 61 61 62 63 61 59 56 53 49 47 46 46 46 48 49 49 49 48 47 45 42 40 38 38 39 40 41 42 43 44 45 45 44 44

ECMWFFLT2_500_spd_060.txt.gz
Wind_Speed
61 61 59 58 57 55 55 58 60 56 53 54 53 52 51 53 55 56 57 57 54 54 47 36 33 36 40 44 43 43 43 41 40 39 36 35 37 36 34 32 31 28 26 23 22 20 18 16 14 16 20 24 28 31 31 30 29 29 31 32 33 34 34
61 62 61 60 58 55 52 53 57 56 54 54 55 54 53 56 57 56 57 57 54 52 47 38 33 33 38 42 42 41 42 42 41 39 37 37 38 37 35 33 32 30 27 25 23 22 19 17 15 16 19 24 28 31 32 31 30 30 30 32 34 35 35
58 61 61 61 60 59 54 49 50 56 58 57 58 59 58 59 59 57 57 58 56 51 45 42 37 32 34 40 41 41 41 42 42 39 37 38 38 38 36 34 33 31 29 27 25 24 22 20 18 17 18 22 27 31 33 32 31 31 32 34 35 36 36
54 58 60 61 61 60 60 56 52 54 57 57 59 60 59 59 59 58 57 58 58 52 44 43 40 33 33 37 40 41 41 42 42 40 38 39 39 40 37 35 33 32 30 29 26 25 24 22 20 19 18 20 25 30 33 32 32 33 34 35 36 36 37
52 53 56 60 61 58 59 63 61 57 54 53 56 60 60 60 60 59 57 56 56 52 44 43 40 34 33 36 38 41 43 43 42 40 39 40 41 41 40 37 34 33 32 31 28 27 27 26 24 22 21 20 24 30 33 33 32 32 33 33 35 36 37
50 47 51 57 59 56 56 61 64 62 55 49 54 62 63 62 62 61 59 56 54 51 45 42 41 36 35 37 39 41 43 44 43 41 41 41 42 43 42 39 36 34 34 33 31 30 30 30 27 24 22 21 23 28 32 34 32 31 32 32 33 35 36
49 45 48 56 61 61 61 62 63 63 58 51 53 60 63 63 63 62 61 58 57 53 46 41 40 38 37 38 40 42 43 43 43 42 42 42 43 43 42 40 38 36 35 35 35 33 33 32 29 26 24 22 22 26 31 34 33 31 31 32 33 34 34
49 45 46 53 58 61 64 64 63 61 59 54 52 57 63 65 64 62 62 63 60 53 46 41 37 36 38 40 41 43 44 44 44 43 43 43 43 42 41 41 40 38 37 38 37 35 34 33 32 29 27 24 23 25 30 34 34 33 32 32 33 33 33
48 46 46 50 54 59 63 63 62 63 62 60 61 64 66 68 67 61 57 59 61 56 47 40 36 35 38 40 41 43 45 46 46 46 45 45 43 42 41 41 40 39 39 39 37 35 33 34 33 31 29 27 25 25 28 32 35 35 34 33 32 32 32
48 45 47 50 50 54 58 59 62 67 66 65 68 69 68 69 69 65 55 46 48 54 51 41 35 36 37 39 42 44 45 46 47 47 46 46 44 43 41 40 40 40 39 38 36 35 34 33 33 32 30 29 27 26 27 31 35 36 36 34 33 32 32
49 46 48 51 48 49 56 61 67 70 69 68 68 69 70 70 67 68 64 49 41 49 53 43 36 37 37 37 41 44 46 48 49 49 48 47 46 44 42 41 41 40 39 38 36 35 33 33 33 33 32 31 30 28 27 29 34 36 37 36 35 34 33
51 50 50 52 51 51 57 66 71 72 70 70 70 70 71 71 69 68 67 61 54 54 52 45 40 40 39 39 42 46 50 52 53 52 52 51 49 48 46 45 43 41 39 38 35 33 33 34 34 34 33 33 32 30 28 29 32 35 37 37 36 35 34
54 53 52 52 52 53 56 64 69 71 71 71 71 71 71 72 74 70 64 64 63 57 52 48 44 42 41 41 44 50 53 54 55 55 54 53 51 50 48 46 44 42 41 40 37 34 34 35 35 34 34 34 33 32 30 29 29 32 36 37 37 37 36
56 54 52 52 52 52 55 61 66 69 71 71 71 72 73 72 74 71 66 67 63 54 51 49 44 41 41 40 42 48 53 55 56 56 56 55 53 52 50 47 46 44 43 42 39 36 36 36 36 35 34 33 33 32 31 29 28 29 33 36 37 37 36
58 54 53 54 53 51 53 58 64 67 69 71 71 72 73 73 73 72 70 70 64 55 51 48 44 41 41 40 40 45 51 55 56 57 58 57 56 55 53 51 49 47 46 44 41 38 38 38 37 36 35 33 33 33 32 31 30 29 30 33 36 37 37
59 56 54 55 54 53 53 57 62 66 68 70 71 71 71 72 73 72 71 71 66 57 52 48 45 44 42 41 42 45 50 55 56 58 60 59 58 57 55 53 52 51 49 46 43 40 39 38 37 37 37 36 35 34 33 32 32 31 30 30 33 36 37
57 57 56 54 53 55 56 57 60 65 68 69 69 70 70 71 70 67 67 70 66 58 53 49 46 45 44 43 43 44 49 54 57 58 60 60 59 58 56 55 54 52 50 48 45 42 40 38 36 36 37 37 35 33 33 34 34 33 32 31 32 34 36
52 56 57 53 50 53 56 55 55 60 66 67 66 69 70 69 67 64 64 68 66 59 55 50 47 46 44 42 43 43 46 51 56 58 59 60 60 59 58 56 54 53 51 48 45 43 41 38 36 35 36 37 35 34 35 35 35 34 34 34 33 34 34
43 49 54 53 51 51 49 48 49 53 61 64 65 70 71 68 67 66 64 66 65 59 55 50 48 47 44 41 42 43 44 47 52 56 58 59 59 58 57 56 56 55 52 49 47 44 41 38 37 37 38 37 37 37 36 36 35 35 35 35 35 34 34
36 41 48 52 51 48 44 47 49 49 55 64 69 71 71 67 66 67 66 66 65 60 55 52 49 48 46 41 40 41 43 45 49 53 56 57 58 57 57 57 57 55 52 49 48 45 42 41 39 38 38 38 38 38 37 36 36 36 35 36 36 35 34
34 36 41 44 46 46 46 50 52 50 54 65 71 71 70 67 65 66 66 67 65 59 56 53 50 48 47 42 39 42 45 46 46 49 52 56 57 56 56 57 56 55 53 50 49 46 43 42 40 38 38 39 38 38 38 37 37 37 36 36 36 35 34
32 35 38 40 43 46 46 48 53 54 55 62 67 69 68 68 65 63 64 66 64 59 57 54 50 48 46 42 41 44 45 43 43 45 48 53 56 56 57 56 54 53 53 51 49 48 45 43 41 40 40 39 38 38 39 39 38 37 36 36 36 34 33
31 34 38 40 42 44 43 44 49 55 57 60 65 66 64 65 64 62 63 64 62 59 57 54 51 48 44 43 44 45 43 40 41 43 46 49 54 56 57 54 52 51 51 51 51 50 48 45 44 43 43 40 39 40 41 40 38 36 34 35 35 33 33
32 34 37 39 40 43 43 43 46 52 56 59 64 66 64 63 63 61 61 61 60 59 58 54 51 48 45 44 45 43 40 40 41 42 44 48 51 54 53 51 50 49 50 52 52 51 49 48 47 47 45 42 42 43 44 42 38 35 34 35 34 33 34
32 34 37 38 40 42 44 43 43 48 53 57 64 68 66 64 62 59 58 59 59 58 58 54 51 48 46 45 44 42 40 40 41 41 44 47 48 47 45 44 44 45 46 48 48 48 48 48 49 50 48 46 46 47 44 41 38 35 34 35 34 34 34
31 33 36 39 40 40 41 41 41 45 51 56 63 68 66 64 63 59 55 57 59 58 57 55 52 49 48 47 44 42 40 40 41 42 43 43 41 40 38 37 38 39 40 41 42 44 45 46 47 50 51 50 50 48 43 39 37 36 36 36 35 34 34
32 34 37 38 39 39 38 39 40 45 51 55 59 65 65 62 62 60 55 55 58 58 57 55 52 50 49 48 45 42 41 42 42 41 40 38 37 36 35 35 35 35 34 35 36 39 42 43 45 48 51 52 50 46 41 38 37 37 37 35 34 33 32
33 35 35 35 35 36 38 39 40 44 51 53 54 61 66 63 59 59 57 54 56 58 57 55 53 51 50 49 46 43 43 44 43 40 39 38 37 36 35 35 35 33 31 31 34 37 39 41 43 47 49 49 46 42 38 38 38 37 35 33 32 31 30
33 34 34 35 36 36 37 39 40 43 51 54 53 57 64 64 58 56 57 56 55 56 57 55 52 52 51 49 47 46 46 45 44 41 40 39 39 38 36 35 35 32 29 30 32 33 35 38 41 44 46 44 40 37 36 36 36 35 33 31 29 29 30
30 32 34 36 37 37 36 37 39 43 50 55 54 53 57 63 61 56 56 57 55 54 55 55 52 51 52 51 49 49 48 47 45 43 42 42 41 40 38 36 34 32 30 29 30 31 34 37 39 40 41 40 36 34 34 35 35 34 32 29 28 29 30
26 31 35 36 37 36 36 36 39 44 50 55 57 53 51 56 61 59 56 56 55 53 53 53 51 52 53 53 51 51 51 49 47 45 45 45 43 41 39 36 34 32 31 30 31 34 37 38 38 38 38 36 35 35 35 35 36 34 31 29 29 30 30
22 26 30 31 32 32 33 35 40 46 50 53 55 54 51 50 55 57 57 56 54 52 51 52 52 52 53 54 53 53 53 51 49 47 48 48 46 44 41 38 34 32 32 32 34 36 39 39 38 37 37 36 35 35 36 37 37 35 32 31 32 33 33
19 21 23 24 25 28 32 37 42 46 49 51 51 50 50 49 48 52 56 57 54 51 50 52 52 52 53 55 55 55 55 53 51 51 52 51 49 45 44 41 37 34 34 35 36 38 38 38 38 38 37 36 36 34 34 36 38 37 35 34 35 35 35
20 20 21 20 21 26 31 37 41 44 47 49 49 47 49 49 47 48 53 57 55 51 51 53 52 50 53 57 57 57 58 55 53 54 55 54 50 47 45 44 40 36 34 35 37 39 39 39 39 38 37 36 34 32 32 34 38 40 40 37 37 37 38
22 22 21 20 19 24 31 36 39 41 43 45 46 46 47 49 47 46 49 54 55 51 51 53 51 48 51 56 59 60 60 57 55 56 57 55 52 48 46 45 43 39 36 35 37 39 40 40 39 38 37 34 32 30 31 33 37 40 41 40 39 39 41
22 23 22 20 20 23 29 34 36 38 41 43 44 45 45 46 46 46 47 51 53 51 50 52 51 49 51 56 59 62 62 59 57 58 58 57 55 51 47 47 45 42 38 38 39 41 42 41 40 39 37 35 32 31 30 31 34 36 38 39 40 40 41
18 21 20 19 20 23 27 32 35 37 40 42 42 45 45 44 43 45 46 48 51 51 50 51 50 49 51 56 60 62 64 62 59 59 59 58 57 54 50 48 48 45 42 40 41 43 44 44 43 41 40 37 35 33 31 30 32 33 35 37 38 40 40

ECMWFFLT2_500_spd_063.txt.gz
Wind_Speed
56 56 58 57 55 52 51 52 55 55 53 52 50 46 43 44 41 36 39 47 51 51 51 50 50 49 47 48 46 40 38 40 40 39 36 32 31 32 30 28 27 26 23 20 18 17 16 15 14 14 17 20 23 26 29 29 29 28 29 30 31 32 32
46 50 57 59 59 56 47 40 46 53 53 52 53 51 47 48 47 39 35 38 43 49 52 52 51 48 45 46 48 43 39 42 44 42 39 35 33 32 31 29 29 29 26 23 21 19 18 17 15 15 16 20 22 25 28 29 29 29 29 30 31 32 33
41 41 47 51 55 61 53 31 28 42 51 54 57 55 51 50 49 44 40 41 41 42 48 52 51 47 44 42 42 41 39 43 45 44 42 40 37 35 33 32 32 32 30 28 25 22 20 19 18 17 17 19 21 23 26 28 29 29 30 32 33 33 34
43 33 34 41 46 56 60 45 29 29 37 44 53 58 57 53 49 40 35 42 48 45 44 48 47 45 43 41 38 37 38 40 44 46 44 42 40 38 35 33 33 32 30 29 26 23 21 21 20 19 17 17 19 22 25 27 29 30 31 32 33 34 34
45 37 33 39 42 41 48 55 48 35 32 35 41 53 59 57 54 45 31 32 40 42 45 49 49 45 42 40 36 34 34 38 43 46 44 43 42 41 38 35 35 33 31 29 28 25 23 23 22 21 19 18 19 21 24 26 29 30 30 30 32 33 35
40 40 34 36 40 34 33 48 57 47 38 34 34 45 57 59 59 54 40 27 20 21 28 37 47 49 43 37 35 33 33 36 43 46 42 42 43 41 40 38 37 36 33 31 29 27 25 25 24 22 20 19 18 19 21 25 28 29 30 30 30 32 34
39 37 32 34 39 34 27 35 48 48 38 32 31 36 45 52 56 57 50 34 22 20 20 20 31 45 47 40 35 33 33 36 42 44 41 41 43 42 41 39 37 36 34 32 31 30 28 26 24 23 21 20 18 17 19 22 26 29 30 30 30 31 33
44 41 39 43 46 43 37 35 41 46 42 34 32 29 28 34 42 49 52 43 31 28 28 24 29 37 41 42 38 33 33 37 40 41 41 41 41 42 43 40 37 35 34 33 33 33 31 27 24 24 23 21 20 19 19 20 23 28 30 31 31 31 32
46 46 45 46 48 47 46 41 39 47 49 41 35 30 27 32 36 36 38 41 39 34 29 30 39 43 37 37 38 35 35 37 37 37 40 40 41 44 44 41 39 38 37 35 34 33 31 27 25 26 25 24 22 21 20 19 21 26 30 32 31 31 31
47 46 45 45 45 44 47 46 41 44 49 46 39 34 33 38 44 41 32 30 34 36 29 26 33 39 36 33 35 36 37 39 37 37 37 37 40 44 43 41 42 41 40 38 37 35 31 27 27 28 27 27 25 23 22 21 21 24 29 32 32 31 31
51 47 46 48 50 48 48 48 43 39 41 43 43 44 41 39 44 48 43 33 30 31 31 29 30 33 33 31 31 32 35 39 40 41 40 39 42 45 44 44 45 42 40 40 39 36 32 31 31 30 30 30 28 26 24 23 22 22 26 30 32 32 32
54 51 48 48 52 54 51 51 49 46 44 43 44 52 53 45 42 48 48 42 36 33 28 27 32 35 33 31 31 30 30 36 42 45 44 42 44 45 43 42 44 42 39 37 37 37 35 34 34 32 32 32 31 28 27 26 24 22 24 27 30 32 32
57 55 53 50 51 54 55 54 54 54 54 50 46 51 57 52 49 54 53 45 40 38 30 22 26 34 36 36 39 38 36 42 48 49 46 42 42 43 41 41 42 42 40 38 38 38 37 37 35 34 33 33 32 30 28 27 25 23 23 25 28 32 33
61 59 57 56 54 54 56 56 55 54 55 57 54 53 57 57 57 58 55 48 45 44 39 29 26 32 35 37 42 44 42 45 48 48 45 42 42 44 44 44 44 43 43 42 41 40 39 38 37 36 35 33 32 32 30 28 26 24 23 23 25 29 32
59 60 59 59 58 57 56 55 54 53 52 57 61 61 61 63 63 60 54 53 53 48 43 37 31 30 32 36 43 46 43 43 46 48 48 47 48 50 51 51 51 48 47 45 43 42 41 40 38 37 35 33 32 32 31 29 27 25 23 22 22 25 30
57 58 59 59 58 58 60 57 54 54 53 55 61 66 69 69 67 62 57 59 58 50 46 47 44 36 32 34 43 48 44 42 44 46 48 50 52 53 52 53 53 51 50 48 45 44 42 41 39 37 36 34 34 34 33 30 28 26 24 22 21 23 27
53 55 57 59 58 59 64 61 55 52 54 57 60 64 69 70 68 66 64 63 60 55 54 59 58 50 39 33 38 46 44 41 41 44 47 51 52 52 50 51 51 50 49 48 47 44 43 42 39 37 35 34 33 33 33 32 30 29 26 24 24 24 25
46 52 55 57 60 62 64 62 56 53 54 56 58 61 66 69 69 70 69 64 59 60 62 63 61 61 55 43 38 43 44 41 42 45 47 50 53 54 52 52 52 51 49 48 47 45 44 43 40 37 36 34 32 33 34 34 33 31 29 27 26 25 24
38 45 50 55 60 61 60 60 57 55 55 55 55 58 64 67 68 72 74 70 66 68 70 62 55 57 59 53 44 42 44 45 45 47 49 51 54 55 53 52 52 52 51 50 48 47 46 43 41 39 37 36 34 34 36 36 35 33 31 30 29 27 26
31 37 43 50 57 58 56 56 57 56 56 56 55 57 60 64 68 71 73 72 69 68 69 65 57 52 52 50 46 44 46 48 46 47 50 53 54 54 53 52 53 53 51 50 49 48 46 44 42 40 38 37 36 35 35 37 36 35 34 33 31 29 28
29 32 34 39 47 53 55 55 57 59 56 54 55 56 57 62 66 66 66 69 68 63 60 60 61 59 54 48 46 48 49 49 46 45 48 51 53 55 56 56 56 55 54 52 52 50 47 45 44 41 39 39 38 36 35 37 38 37 36 35 33 30 28
31 31 32 33 39 50 57 57 58 59 55 51 53 54 54 57 62 63 63 66 69 66 58 54 59 64 62 55 51 50 49 48 47 45 45 48 52 56 58 58 58 58 57 56 54 51 48 46 45 43 41 41 39 38 37 36 37 37 36 35 33 30 29
34 34 34 34 37 46 54 56 57 57 55 52 53 54 55 55 58 64 66 65 67 67 59 53 57 63 65 62 57 52 49 48 47 45 44 46 51 56 59 60 60 60 59 57 54 52 50 47 46 45 44 42 41 40 38 36 36 37 36 35 33 30 29
35 36 34 33 34 41 49 54 55 55 56 55 52 54 57 54 51 58 66 66 65 65 59 54 58 63 65 64 59 53 50 48 47 46 45 45 48 54 59 61 60 60 59 57 54 53 51 49 47 47 47 45 43 41 39 37 36 34 33 33 32 31 31
35 36 35 33 34 37 43 50 54 56 57 58 53 50 53 54 49 50 59 64 65 64 60 56 57 61 63 63 60 55 53 50 48 47 46 46 47 50 55 59 60 60 58 56 54 53 52 50 50 49 49 47 45 43 41 38 34 32 31 33 33 33 33
33 35 35 35 36 37 40 45 52 55 56 58 57 51 49 53 52 47 50 59 64 65 63 60 58 58 60 61 60 58 54 51 49 48 47 46 46 47 51 56 59 59 58 55 53 51 51 50 50 51 51 49 46 45 42 37 34 33 33 34 34 34 33
31 34 36 36 37 37 37 41 47 53 56 58 58 54 50 53 55 49 45 50 60 65 65 63 60 59 59 59 59 59 55 51 49 49 48 46 45 46 48 52 56 57 57 54 53 51 49 49 50 52 52 50 48 46 42 37 35 36 35 35 34 33 32
31 32 34 36 36 35 35 38 43 50 56 57 56 53 51 52 55 53 45 45 53 62 65 64 62 61 60 58 58 58 55 51 49 49 48 46 44 45 47 49 52 54 55 54 53 50 49 48 49 52 53 52 49 46 42 39 40 39 37 36 35 33 32
32 31 31 33 36 36 36 38 41 45 51 54 54 53 52 51 51 51 48 45 47 56 63 64 62 60 60 59 58 57 54 50 48 48 48 45 44 45 46 47 49 51 52 52 51 50 49 48 48 51 53 52 49 47 45 45 45 42 40 39 38 35 34
30 31 32 33 35 36 36 38 39 41 45 50 51 51 53 51 48 48 50 48 45 50 59 63 62 60 59 59 59 57 53 49 47 46 46 45 44 44 44 45 46 48 49 50 49 49 49 49 49 51 51 50 49 49 49 50 48 45 44 42 40 39 37
28 31 33 33 34 35 36 38 39 40 43 47 47 46 47 47 44 42 46 49 46 48 55 60 60 59 58 58 59 57 52 48 47 46 45 45 44 43 43 43 44 46 45 44 44 45 46 48 48 48 48 47 48 50 52 52 51 49 47 45 43 41 39
26 30 33 34 34 34 36 37 39 41 42 43 44 43 42 43 41 36 38 46 49 49 52 56 58 58 57 57 57 56 51 48 46 45 45 45 44 43 42 42 42 42 41 41 42 43 44 44 43 43 43 45 46 49 51 52 52 51 50 47 45 43 39
21 25 30 33 34 34 36 37 38 40 41 40 40 41 41 42 43 38 36 42 49 51 52 52 54 56 56 56 56 54 51 49 48 46 45 45 44 43 42 41 40 40 41 41 41 41 40 39 40 42 45 47 48 49 49 49 50 51 50 48 45 41 37
18 20 23 28 32 33 34 35 35 36 38 39 39 40 40 42 44 41 37 40 49 54 52 51 52 54 55 54 55 55 53 51 51 49 46 46 46 45 43 41 40 40 41 40 39 38 38 39 41 44 46 48 49 49 48 48 49 50 49 46 42 37 34
18 19 18 21 25 28 30 33 34 34 36 38 39 40 40 42 43 42 38 40 49 55 53 51 51 53 53 53 55 56 54 51 50 51 50 49 48 47 44 42 41 41 41 41 39 38 38 38 40 41 43 45 46 46 47 47 48 49 47 43 38 35 33
16 18 19 18 18 20 25 30 34 35 35 36 38 40 41 42 44 43 38 39 48 55 54 51 51 51 50 51 53 55 55 51 49 51 52 51 50 49 46 43 43 43 43 42 40 38 38 37 37 38 40 41 43 43 44 45 45 45 43 38 35 34 35
15 16 18 19 17 16 20 26 32 34 35 36 38 40 41 43 45 44 39 37 45 53 53 51 50 49 48 49 51 53 56 53 48 50 54 53 51 49 47 45 45 45 45 44 41 39 38 36 36 37 38 39 40 42 42 42 42 41 39 36 34 35 37

ECMWFFLT2_500_spd_069.txt.gz
Wind_Speed
36 34 34 36 38 38 38 39 39 38 38 37 36 36 33 32 34 32 27 24 22 22 24 25 27 28 28 30 36 35 30 30 28 22 18 17 17 19 20 20 21 21 19 18 17 16 15 14 11 9 9 11 15 18 20 22 24 24 24 25 25 25 25
35 33 30 31 36 37 35 32 29 28 33 36 36 36 33 32 32 29 27 23 15 13 17 17 17 21 22 24 31 34 31 31 33 28 21 17 14 15 19 20 20 22 21 18 18 17 16 15 13 10 10 11 14 17 19 21 24 24 25 26 26 27 26
34 35 36 33 35 39 38 33 26 22 25 28 32 36 36 36 33 29 29 28 21 12 10 13 13 16 18 16 22 31 33 33 32 30 28 25 19 18 19 19 18 21 21 18 18 18 18 17 15 13 11 10 11 14 16 19 22 25 27 29 30 29 28
30 31 34 30 28 34 34 34 34 31 28 26 26 31 33 34 35 33 32 31 27 21 10 8 13 16 17 16 17 25 31 31 29 29 31 30 23 18 16 14 13 17 20 19 19 19 19 18 16 13 11 9 9 10 13 15 19 24 26 28 29 29 28
29 29 31 27 24 26 26 28 35 35 34 33 29 29 31 31 32 32 32 30 25 22 17 8 9 16 18 17 17 19 24 28 29 31 33 30 22 17 16 12 10 13 18 20 20 21 20 19 17 15 12 11 10 9 9 11 14 19 22 24 25 26 27
33 30 33 32 30 29 28 30 36 37 33 32 30 28 28 27 27 28 31 26 14 13 17 17 13 14 16 15 16 18 21 25 27 30 32 29 24 23 24 20 16 15 17 17 18 20 21 20 19 17 15 13 12 10 10 11 12 14 18 21 23 24 26
39 34 34 37 35 34 34 31 33 38 34 31 30 28 23 19 18 21 26 25 19 18 19 23 22 14 11 15 19 19 20 24 25 28 30 28 26 28 28 26 22 21 21 19 18 19 21 21 20 19 17 15 13 13 13 12 12 13 15 18 22 23 25
41 38 35 37 38 39 38 31 31 38 38 33 33 32 28 23 17 15 19 23 24 21 18 22 24 16 10 16 20 17 19 22 24 27 28 27 28 30 28 27 26 25 25 23 22 21 21 21 21 19 17 16 14 13 12 11 11 13 14 16 20 23 24
40 42 39 39 40 42 43 39 36 41 43 39 38 39 35 31 27 21 18 21 25 25 20 20 21 19 17 16 16 14 16 19 22 28 30 27 27 28 27 27 27 26 26 25 24 22 21 21 21 20 20 18 16 14 14 13 11 11 12 14 17 22 25
42 43 44 45 46 45 47 45 41 43 43 41 42 44 42 37 36 32 25 22 27 29 25 21 24 27 28 21 19 24 21 14 16 25 29 28 27 27 26 26 24 23 25 25 25 24 23 22 22 22 22 20 19 17 16 15 14 11 11 12 15 20 24
45 44 46 49 50 48 48 48 46 45 44 44 45 46 46 44 42 39 33 29 33 36 32 25 26 32 33 26 23 28 26 19 16 19 20 21 26 28 27 26 24 24 25 25 26 26 24 24 25 25 24 23 22 20 19 17 16 14 12 11 13 17 21
47 47 48 50 53 53 52 51 49 47 46 47 47 47 48 48 47 44 39 35 37 43 41 32 30 32 33 32 29 25 25 25 24 24 19 16 22 26 25 24 23 25 26 26 26 26 26 27 27 27 26 26 25 23 22 20 18 16 14 13 13 14 17
48 50 51 52 54 57 57 55 52 50 49 50 51 51 50 51 50 48 43 39 38 42 45 42 38 35 33 35 34 27 26 28 28 30 27 22 24 29 29 28 26 27 29 28 26 26 26 28 29 29 28 28 28 27 25 23 21 19 17 15 14 13 14
51 52 53 54 56 57 57 58 57 55 53 52 52 54 53 53 53 50 46 43 40 39 45 49 48 42 37 38 38 31 31 33 31 33 35 32 32 35 35 33 33 32 32 31 29 28 29 29 30 31 31 31 31 29 27 26 24 21 19 17 16 15 14
53 54 55 56 56 57 58 59 59 57 55 53 52 54 55 54 53 52 50 48 44 40 44 50 53 50 43 42 43 38 38 39 35 35 37 35 33 35 37 37 35 33 32 32 33 33 34 35 35 35 35 34 34 33 31 30 27 25 22 20 18 17 16
48 51 55 56 56 58 60 60 59 57 56 56 54 54 56 55 54 54 53 52 48 44 45 50 54 55 50 47 48 46 45 45 42 39 37 33 29 31 37 40 37 34 33 35 36 36 37 39 40 40 40 40 39 37 35 33 31 29 26 23 21 19 19
41 43 50 55 56 59 62 61 59 57 56 57 57 56 56 57 56 55 55 56 53 47 46 49 53 57 57 54 52 50 49 49 47 43 40 39 36 35 37 40 39 37 36 36 37 38 40 42 42 42 42 41 40 40 38 36 35 33 30 28 26 25 24
32 35 42 50 54 58 61 60 60 59 56 55 56 57 57 57 57 55 57 61 59 51 49 50 52 56 59 59 58 56 53 52 50 47 45 44 45 43 39 38 39 40 39 36 36 39 42 43 44 43 41 40 40 41 40 37 35 32 29 28 28 28 29
26 27 33 43 50 55 58 58 59 60 58 57 58 59 59 60 59 56 59 66 64 55 52 52 53 55 57 58 61 61 59 56 54 51 49 45 44 46 44 41 41 42 39 36 36 38 38 38 40 40 38 37 40 40 36 35 33 30 27 27 28 28 26
27 26 29 36 43 49 54 57 61 62 61 62 62 62 62 64 63 59 61 68 67 59 56 55 55 57 57 55 57 61 61 57 53 52 51 48 48 49 47 45 46 46 41 37 37 37 36 34 33 32 32 34 37 37 33 31 30 28 25 26 28 27 23
26 27 29 30 34 43 51 55 59 64 65 65 65 64 64 66 67 65 63 65 66 64 61 60 60 61 61 56 53 57 61 58 52 50 48 48 50 51 49 48 49 49 45 42 40 38 36 33 30 28 29 31 34 34 31 28 27 25 23 23 26 29 28
25 28 31 30 31 38 44 48 54 61 64 66 66 67 67 66 66 67 66 64 65 65 64 64 64 64 65 62 55 55 59 59 53 49 48 48 49 50 50 51 51 51 48 45 42 40 38 35 32 30 30 32 34 34 32 30 27 24 21 20 26 31 31
26 28 30 30 30 30 33 41 49 54 59 63 65 67 70 69 66 66 67 66 66 66 64 65 66 65 67 67 61 56 58 59 56 52 50 49 49 49 50 50 50 51 50 48 45 42 40 39 37 34 33 35 36 35 32 30 28 24 20 19 22 25 26
25 27 28 28 29 27 29 35 42 48 54 59 61 66 70 71 68 68 67 66 67 67 65 65 66 66 67 68 66 61 59 59 59 56 54 53 52 52 51 50 48 48 49 49 48 46 41 39 37 36 34 33 33 31 30 28 27 24 20 19 20 22 24
24 26 26 26 28 29 30 32 36 42 49 53 58 65 71 71 70 70 68 66 67 67 68 68 68 68 68 68 69 67 61 59 61 61 58 57 57 55 53 52 49 48 49 49 49 48 44 40 38 36 34 32 30 30 29 28 27 24 22 22 22 24 25
24 26 27 27 29 30 30 33 36 38 41 46 53 63 70 72 72 72 70 67 66 66 68 70 71 72 72 69 69 69 64 59 61 62 60 59 59 57 55 54 51 49 49 49 49 49 47 44 42 40 38 35 33 32 32 30 28 26 26 25 25 26 27
22 25 28 28 28 28 29 31 34 36 38 42 47 55 64 70 73 74 72 69 67 66 67 69 70 73 76 73 70 69 66 61 60 61 59 58 59 58 56 54 53 51 50 49 48 47 46 45 44 44 43 41 38 36 34 31 29 29 29 28 28 28 27
21 23 27 29 29 29 29 29 32 36 40 42 44 48 55 62 68 73 74 73 71 68 67 69 69 70 74 75 72 70 67 62 60 61 59 58 59 60 58 55 54 52 50 48 46 45 44 44 44 44 43 42 40 37 34 31 31 32 32 31 31 30 28
20 22 24 28 31 33 33 31 32 35 39 42 44 45 48 53 60 67 71 74 74 72 69 69 70 69 70 72 73 73 69 64 60 61 61 60 60 60 60 57 55 53 50 47 44 42 41 42 42 43 43 41 40 37 34 32 32 34 34 34 33 32 29
19 21 22 25 29 32 34 34 35 36 38 40 43 45 46 49 54 59 64 68 73 75 73 71 70 70 69 69 72 73 72 68 63 61 63 64 62 61 61 59 57 54 50 45 42 40 39 39 40 41 42 42 39 37 35 35 35 36 36 35 34 33 31
19 22 24 25 27 30 33 35 36 37 38 39 40 43 46 46 48 52 56 60 66 72 75 74 71 70 70 69 69 71 74 74 69 63 63 65 64 62 62 60 57 54 49 45 42 40 38 38 40 40 41 42 41 37 36 37 38 38 38 37 35 34 32
19 22 24 26 29 31 33 34 36 38 39 38 39 42 44 45 46 48 50 53 58 65 72 74 72 69 69 70 68 67 71 76 75 69 65 64 62 60 60 59 56 52 48 44 43 43 43 42 41 40 41 42 42 39 38 39 40 40 40 39 37 35 34
20 22 23 25 29 32 34 35 37 39 39 39 39 41 43 45 45 46 48 50 53 58 66 72 72 69 68 69 68 66 67 71 75 74 71 67 63 60 59 57 54 51 47 46 46 46 46 46 44 42 40 41 41 40 40 41 41 41 40 39 38 36 35
19 21 23 23 25 29 33 36 37 38 39 39 39 40 41 42 43 44 46 49 51 54 59 65 70 70 68 67 67 66 64 65 70 74 75 73 69 64 61 59 57 53 48 46 47 47 47 47 46 43 41 41 41 41 41 41 42 41 40 39 38 37 37
16 18 21 23 24 25 29 34 37 36 37 37 37 37 38 39 40 41 44 47 51 53 55 59 64 68 68 66 66 65 63 62 63 68 73 76 76 72 66 62 61 58 52 48 47 47 46 45 45 43 42 41 41 40 41 41 42 42 41 39 38 38 38
14 16 18 21 24 25 26 30 33 34 34 35 34 34 35 37 39 40 41 44 49 53 54 55 59 62 65 65 64 65 63 61 60 61 66 73 78 77 73 68 65 63 59 54 51 49 47 44 43 44 43 42 41 41 40 40 41 42 41 40 39 39 40
16 15 16 18 22 25 26 27 30 31 32 32 32 33 34 35 36 37 38 41 46 50 53 54 55 57 60 62 63 63 63 62 60 59 60 66 73 76 75 73 68 64 61 59 58 57 52 47 44 44 43 42 42 42 40 40 41 42 41 41 41 42 43

ECMWFFLT2_500_spd_072.txt.gz
Wind_Speed
38 39 37 36 36 33 31 31 32 32 32 30 29 30 31 32 34 34 35 38 38 35 33 32 31 30 28 26 26 24 21 21 21 18 15 14 14 13 14 17 19 19 18 17 16 14 13 12 12 11 11 13 16 19 22 24 24 24 24 25 25 25 23
34 37 37 36 35 34 33 30 29 29 28 29 30 31 31 32 33 33 31 30 31 31 30 26 25 25 22 20 22 23 25 26 25 21 18 17 14 13 13 15 18 20 19 18 17 16 14 13 13 13 12 13 15 18 21 23 24 24 24 26 27 26 25
31 35 35 35 35 36 37 34 30 29 26 26 30 32 33 32 32 31 28 26 25 23 20 17 16 17 15 12 14 17 24 30 29 24 21 21 19 16 14 14 15 17 19 19 18 16 15 14 14 14 14 13 13 15 17 20 23 25 26 27 29 28 26
30 32 33 33 34 35 37 35 33 33 30 28 29 32 32 31 30 28 26 23 18 14 15 19 20 20 20 16 13 14 19 23 24 24 24 25 24 19 15 14 12 13 17 19 19 18 17 15 16 16 15 13 12 13 14 17 20 24 25 26 26 27 27
30 32 32 32 34 34 35 34 33 34 34 33 32 32 32 32 30 28 26 22 17 16 20 24 24 26 28 25 18 15 16 17 17 22 25 24 24 23 21 18 14 13 17 20 20 20 20 18 18 18 16 14 13 13 13 15 17 20 22 23 23 24 26
31 32 33 33 34 35 35 37 37 36 36 36 35 33 34 34 32 31 29 25 23 24 25 25 25 25 27 27 22 15 14 16 15 18 23 24 24 24 22 19 17 15 16 20 22 22 21 19 18 18 16 15 14 13 13 14 16 17 19 21 21 22 24
32 32 34 34 35 35 36 38 40 39 38 39 39 36 36 35 32 32 31 30 31 31 28 26 23 20 20 23 21 16 13 14 15 15 18 23 25 24 20 18 19 17 14 17 21 22 21 19 18 18 18 17 15 14 13 14 16 18 20 21 21 22 23
33 33 35 37 37 37 38 38 39 40 39 40 41 39 37 35 31 29 30 34 36 35 32 30 23 19 21 24 24 23 21 20 21 19 17 18 21 23 22 23 24 22 17 16 18 20 20 19 19 20 20 19 18 16 13 13 15 18 21 22 23 22 22
37 37 37 39 39 40 41 40 39 42 43 43 42 41 38 35 31 28 30 34 36 36 38 36 27 22 24 27 29 29 26 25 25 24 21 19 19 21 25 28 29 28 23 19 19 20 18 18 20 21 21 21 20 17 15 14 15 17 19 20 21 22 23
41 42 40 41 42 42 43 43 42 44 47 46 43 42 41 39 35 31 32 36 36 36 40 38 31 27 27 29 31 30 27 24 22 21 22 22 20 21 25 29 30 30 28 24 22 22 20 19 20 21 21 21 21 19 17 16 17 17 18 18 19 20 22
42 47 47 45 45 44 44 45 45 45 49 49 46 45 44 42 39 34 35 39 39 38 41 39 33 29 30 33 33 31 29 23 18 19 23 27 27 24 26 29 30 30 29 27 26 25 24 23 22 22 22 23 23 21 18 18 19 18 18 18 18 19 20
42 48 51 50 48 47 46 46 47 47 50 50 48 47 46 45 42 38 38 42 43 42 43 41 34 28 30 36 35 34 33 26 22 23 26 31 35 34 33 35 35 34 33 32 31 29 27 27 25 23 23 24 25 24 21 21 21 19 18 18 18 18 19
42 45 52 54 53 51 48 48 49 50 52 52 51 50 49 48 46 42 42 46 48 46 45 43 37 30 31 36 36 36 37 33 30 30 28 28 33 36 37 39 39 38 37 37 37 35 33 32 30 28 27 27 27 26 25 24 23 21 21 19 18 17 17
44 44 49 55 57 57 53 50 51 53 53 53 54 53 52 52 49 46 46 49 51 51 48 45 41 35 33 36 38 37 39 39 36 34 33 30 30 34 37 40 40 40 39 39 39 39 38 37 36 34 33 31 30 29 28 27 26 25 24 22 20 18 17
49 48 49 53 58 62 60 54 52 53 54 54 55 56 56 55 54 51 49 49 52 54 52 48 45 41 37 37 38 37 38 42 40 36 33 31 30 34 38 41 42 42 41 41 40 40 41 40 39 38 37 36 35 34 33 32 30 29 27 24 23 21 19
51 51 52 54 57 61 63 59 54 52 54 55 56 58 58 58 58 56 53 51 53 56 56 52 49 47 41 38 38 36 34 40 43 39 35 33 31 33 37 42 44 43 41 42 42 41 41 41 40 40 40 40 39 39 38 36 35 33 30 27 25 23 22
50 50 53 56 56 58 61 62 60 56 56 57 58 59 60 61 61 61 58 56 54 56 59 56 53 51 46 42 41 36 32 38 47 45 39 37 36 33 35 40 44 45 44 43 44 44 43 42 41 41 41 42 41 40 40 39 38 36 33 31 29 26 25
42 42 47 54 58 57 56 60 65 65 61 60 61 62 62 63 63 64 63 58 55 57 60 60 57 54 51 48 47 42 35 36 44 47 43 41 40 38 38 41 43 46 48 47 47 46 45 43 41 39 40 42 43 41 39 38 37 36 34 32 30 27 24
32 32 36 47 56 57 54 58 66 71 69 66 65 65 65 64 64 67 66 62 58 58 60 62 61 58 55 53 51 49 45 38 37 42 44 44 43 42 44 46 45 44 47 48 47 46 43 42 41 39 37 38 40 40 38 37 36 35 33 32 29 27 23
29 28 30 38 48 54 56 58 64 70 73 71 70 69 69 66 64 65 68 68 65 61 61 63 65 62 59 57 55 55 55 47 39 40 46 46 45 45 45 45 44 44 44 44 44 44 41 39 41 42 38 35 36 37 38 38 38 37 35 33 30 27 24
28 30 29 30 37 49 55 56 59 66 72 73 74 75 74 72 69 65 65 70 71 68 64 64 66 67 63 60 58 59 60 56 46 43 48 50 48 47 47 43 41 42 43 41 40 42 41 39 41 43 40 36 36 38 38 38 39 39 37 35 31 28 25
28 30 29 27 31 41 46 47 52 61 67 71 74 76 77 78 76 69 64 67 72 74 72 67 66 69 68 63 61 61 61 60 53 47 48 51 52 51 50 47 44 42 40 38 36 38 41 42 42 43 41 38 39 40 39 38 39 41 39 35 31 28 27
29 31 30 28 28 32 34 38 44 53 61 68 72 75 77 79 79 76 70 68 70 74 76 73 67 68 71 68 64 63 63 61 58 54 50 51 55 56 53 51 49 46 43 42 40 40 42 43 43 43 41 39 39 41 43 42 40 39 38 36 32 30 29
27 29 30 28 27 28 31 34 38 44 54 62 66 71 76 77 78 77 75 74 73 73 76 78 73 69 72 73 68 66 66 64 62 61 57 53 53 55 55 55 54 52 51 50 47 45 44 44 43 42 40 38 37 38 42 45 43 39 37 37 35 33 33
23 25 27 26 26 28 31 32 34 38 46 55 61 66 72 75 76 76 76 77 78 76 75 78 78 74 72 74 73 70 69 68 66 64 63 61 56 53 53 56 56 55 55 53 51 49 48 46 44 43 40 38 36 32 30 35 40 41 38 37 36 36 35
21 22 23 24 25 27 29 30 32 36 41 49 57 63 67 70 73 75 76 76 78 80 78 78 80 80 76 74 75 75 74 73 71 68 66 67 65 59 55 56 58 58 57 54 52 53 52 49 48 47 43 39 36 32 27 28 33 37 36 34 34 34 35
21 21 22 23 24 24 26 28 31 34 39 44 51 58 62 66 69 73 76 77 76 79 82 80 78 81 81 78 76 77 77 76 75 74 70 67 68 67 61 57 56 57 58 56 54 54 52 50 50 50 47 42 37 33 30 30 33 35 35 34 33 33 33
19 20 21 22 23 23 25 27 29 33 37 40 44 50 56 62 66 69 74 77 77 77 81 82 79 79 82 82 79 78 79 78 77 77 74 71 71 72 68 62 57 55 57 57 56 55 53 51 50 50 49 46 41 35 32 34 37 37 37 37 36 34 33
16 18 21 22 23 23 25 27 29 30 34 38 40 43 47 54 62 67 70 75 78 77 79 82 81 79 80 82 80 78 79 79 78 76 75 74 75 76 74 68 61 58 58 58 57 56 56 53 52 51 50 48 45 39 35 36 39 40 40 40 39 36 35
14 16 18 21 23 24 26 28 29 30 32 35 37 38 40 45 53 61 66 72 76 78 79 81 82 81 80 81 80 78 78 79 78 76 74 73 75 77 76 71 64 59 59 60 59 57 57 56 54 53 52 50 48 43 39 39 41 42 42 42 41 39 37
15 15 16 18 21 24 27 28 30 32 33 34 35 36 38 40 45 52 60 67 73 77 79 80 82 82 81 81 81 78 77 78 79 78 76 73 73 75 76 74 69 62 58 59 60 58 56 56 56 53 52 51 49 47 45 43 42 42 42 42 42 41 39
16 16 16 18 21 24 27 29 31 33 34 36 37 37 38 39 42 46 53 60 68 74 78 80 82 82 81 82 82 80 78 78 80 81 80 76 73 72 73 74 73 68 61 58 58 58 57 57 56 54 52 50 49 48 48 47 45 43 41 42 43 43 42
17 17 17 18 20 23 27 29 31 33 35 37 39 41 40 41 41 43 47 53 60 67 74 79 82 83 82 82 82 82 80 79 80 83 83 81 78 74 72 71 71 69 66 62 59 58 59 59 59 57 54 51 49 48 48 48 48 45 44 44 45 45 44
15 16 17 19 21 23 27 29 30 32 34 37 39 41 42 42 42 42 44 49 54 60 67 73 78 82 84 83 83 83 82 80 80 82 84 85 84 80 76 73 70 66 65 65 64 61 59 60 60 59 56 52 49 47 46 47 48 47 47 46 47 47 47
13 13 14 16 18 22 26 28 29 29 31 33 36 39 42 42 42 42 43 45 50 56 60 66 72 77 82 84 84 83 82 81 81 81 82 84 86 85 80 76 73 69 66 66 67 66 63 60 60 59 57 53 49 46 46 46 47 47 48 48 48 49 49
15 14 14 15 16 18 22 26 28 27 27 28 30 34 39 42 43 43 43 44 47 52 56 60 64 69 75 82 85 84 83 82 81 81 82 83 84 84 82 78 75 73 70 68 68 68 66 62 60 59 57 53 49 46 44 44 44 44 45 48 49 50 50
16 17 17 17 17 18 20 23 26 26 25 24 26 28 32 38 42 44 45 45 45 48 51 55 59 62 67 74 81 84 84 83 81 80 81 83 84 83 82 80 78 77 75 71 68 67 66 64 62 60 57 54 50 48 45 44 42 42 42 45 48 50 50

ECMWFFLT2_500_spd_075.txt.gz
Wind_Speed
37 37 36 36 36 36 37 38 38 39 38 38 38 40 41 42 42 44 43 42 41 38 34 32 29 27 27 25 26 26 23 23 24 23 18 13 10 12 16 18 19 19 19 18 17 16 15 14 14 14 14 14 15 16 19 21 23 23 23 25 25 25 23
37 38 37 36 35 36 38 39 38 38 37 38 38 39 40 42 43 44 43 43 43 41 39 37 34 32 29 28 29 29 27 26 26 25 22 19 13 11 14 18 20 21 20 19 18 17 15 15 15 15 15 16 16 17 19 21 23 24 24 25 26 26 25
36 38 37 35 35 36 37 37 37 36 37 38 38 38 39 40 41 42 41 42 44 45 42 39 38 36 33 31 31 29 28 28 27 24 22 21 18 15 14 15 17 20 20 19 18 17 16 16 16 17 17 17 16 15 17 21 23 25 26 27 28 28 27
35 37 37 35 35 36 36 36 37 36 38 39 39 38 39 38 39 39 38 38 41 44 44 43 42 41 38 35 33 30 30 30 28 25 24 22 20 17 15 12 13 17 19 19 19 18 18 18 18 18 18 16 15 14 15 19 23 25 27 27 28 28 28
36 37 37 36 36 36 36 37 38 37 38 40 40 40 40 39 38 37 36 35 38 42 45 45 45 43 40 38 34 31 30 30 29 27 25 23 20 19 18 15 12 15 17 19 20 20 20 21 21 20 19 17 15 13 14 17 21 23 24 25 26 27 28
37 39 39 37 37 37 38 39 40 39 39 40 40 40 41 41 40 38 35 35 36 38 42 43 44 43 40 37 34 32 31 30 29 27 25 23 21 20 21 20 17 16 17 17 20 22 23 23 22 21 19 18 16 13 13 15 18 20 22 25 26 27 28
36 39 39 39 38 39 40 40 40 40 40 40 40 41 42 42 41 39 36 35 37 37 38 38 39 39 37 36 36 35 34 31 28 26 25 25 24 23 23 23 22 20 18 17 19 23 24 24 22 21 20 18 16 14 13 14 17 19 21 24 27 28 29
36 38 40 40 39 39 41 42 42 42 41 41 41 41 42 42 42 40 38 38 39 38 37 36 35 35 37 38 38 37 36 33 29 27 26 27 28 28 26 25 25 25 23 20 20 23 25 25 24 22 21 19 18 16 14 13 16 20 23 25 28 29 29
38 39 40 40 39 39 41 42 43 44 42 41 41 41 42 42 42 41 40 41 41 39 38 37 35 36 40 40 39 37 35 33 31 30 30 31 32 32 30 29 30 30 26 22 21 23 26 26 25 23 22 21 19 17 15 14 16 20 23 26 28 29 30
42 42 42 41 40 40 41 41 43 45 45 43 42 43 43 42 43 43 42 44 43 40 40 41 38 39 42 41 38 36 32 31 32 32 33 34 35 34 33 32 34 34 32 28 26 27 28 29 28 26 24 23 22 20 18 16 16 18 21 24 27 29 30
45 46 45 44 43 43 44 43 44 46 47 46 44 44 44 44 43 44 45 46 45 43 43 43 41 41 42 41 38 36 32 31 33 34 34 35 36 36 35 34 34 35 35 33 31 31 33 34 33 30 28 27 26 24 22 20 19 19 20 23 25 28 30
44 48 48 47 47 47 47 46 46 47 48 47 46 45 45 46 45 45 46 47 46 46 46 46 43 41 41 38 36 36 35 33 33 34 35 36 36 36 36 35 36 36 36 34 32 32 35 37 36 35 34 33 31 29 27 25 24 22 21 22 24 26 28
39 47 51 51 50 49 48 48 48 49 49 48 48 48 48 48 47 47 47 47 47 48 48 48 46 43 41 37 34 36 38 36 35 34 35 36 37 37 36 36 37 39 39 38 35 33 34 36 36 36 36 36 35 34 32 31 28 26 25 25 25 26 27
37 42 50 54 53 51 50 50 50 51 51 50 50 51 51 50 49 48 47 47 47 48 48 48 48 47 45 41 37 37 39 39 38 36 35 37 38 38 37 37 38 40 42 42 40 37 35 35 36 36 36 37 37 36 35 34 32 30 29 28 27 27 27
41 41 45 51 56 55 53 52 52 53 54 53 52 53 54 53 51 50 48 47 48 48 48 48 49 50 49 46 42 40 40 41 41 38 37 38 38 37 38 39 39 41 44 45 44 42 40 38 37 37 36 37 37 37 37 36 34 32 32 31 30 28 28
45 45 44 47 53 58 57 55 54 55 56 56 55 55 56 56 53 52 50 49 49 49 48 49 51 51 50 49 47 44 43 45 45 42 40 40 40 39 40 41 42 42 44 46 47 46 44 42 41 40 39 37 38 38 38 38 37 35 34 33 31 30 30
45 47 48 48 50 54 59 60 58 57 57 58 58 57 57 57 56 54 53 53 52 51 50 51 54 53 50 49 48 47 47 48 49 46 44 43 43 42 42 43 44 43 43 45 48 47 46 45 44 43 42 41 40 40 41 40 40 38 37 36 34 32 32
41 43 47 50 50 51 55 61 63 61 60 60 60 59 59 59 58 58 57 56 56 54 53 55 56 55 52 51 50 49 49 51 52 51 49 47 46 44 43 44 45 44 43 45 48 49 48 47 46 45 45 44 43 43 42 42 41 41 40 39 37 35 33
33 36 42 49 51 50 53 58 63 66 65 62 62 63 62 61 60 60 60 59 59 59 57 57 58 57 55 53 52 51 51 53 55 56 54 51 49 48 47 46 46 45 43 44 47 50 49 48 48 48 47 47 46 45 44 43 42 40 40 39 37 36 36
28 30 35 42 48 50 52 55 60 65 68 67 65 64 64 64 62 62 63 63 62 62 60 60 61 60 58 56 54 53 53 53 53 56 58 56 55 53 51 50 50 50 47 44 46 49 50 50 51 51 50 50 49 48 46 44 41 39 39 39 35 32 33
28 28 29 34 40 46 50 53 56 61 66 70 70 68 66 67 65 64 65 66 65 65 64 63 63 63 61 59 57 56 56 55 53 53 58 60 60 60 57 54 53 54 51 48 47 49 51 52 52 52 51 50 49 48 47 44 41 40 40 40 35 31 30
28 29 27 27 32 39 42 43 49 56 61 67 73 74 70 69 68 67 67 68 68 68 67 66 66 66 64 62 61 59 58 58 56 54 56 61 65 64 61 57 56 55 53 52 52 52 52 52 51 50 49 49 49 48 46 44 42 41 41 40 37 35 33
27 29 29 27 28 32 33 34 40 48 55 60 69 75 76 73 71 70 70 70 70 70 71 69 68 68 67 64 63 62 60 60 60 57 56 57 61 64 63 59 57 56 54 53 53 53 53 53 51 49 49 49 48 46 45 43 42 42 43 41 39 37 36
26 28 29 28 28 31 32 31 33 39 47 53 61 70 76 77 75 73 72 72 72 72 73 73 71 71 71 68 65 64 64 63 62 62 60 55 53 59 64 61 58 57 55 53 52 53 54 53 51 51 49 47 45 45 43 42 41 41 44 44 40 38 38
25 26 28 29 30 32 33 32 32 34 40 47 55 63 72 77 79 78 76 75 75 74 75 77 76 75 74 72 69 66 66 66 65 66 67 60 51 55 62 61 59 59 58 55 54 53 53 52 51 50 49 46 45 45 44 42 41 41 44 45 42 40 41
24 25 26 28 29 31 32 33 34 34 38 44 50 56 64 72 79 83 81 79 77 77 77 79 81 79 77 75 74 70 68 69 69 69 70 66 57 56 59 58 58 60 59 56 55 54 53 51 50 50 49 48 46 45 44 45 44 44 44 45 44 43 43
23 22 23 24 25 27 29 31 32 34 36 40 43 47 55 64 74 81 85 84 81 79 79 80 82 82 80 78 77 75 72 71 72 73 72 69 64 62 60 56 56 60 61 57 54 54 54 53 52 51 50 48 47 46 46 47 47 46 45 45 45 46 45
21 20 19 19 20 23 25 27 29 31 33 35 37 40 46 55 65 74 82 86 86 83 80 80 82 83 83 81 79 79 77 75 74 75 75 73 70 69 66 59 53 55 59 59 56 54 54 54 53 53 50 46 43 42 44 46 47 47 46 45 47 48 47
17 16 16 17 18 20 24 26 27 29 30 31 32 35 39 46 57 67 75 82 87 87 85 83 83 84 85 84 82 81 81 79 77 76 76 75 74 73 72 66 57 51 53 57 58 57 55 54 54 53 51 47 42 39 41 44 46 47 47 46 46 48 49
14 13 15 16 17 19 22 25 27 29 30 32 32 33 34 39 48 59 68 75 82 87 89 87 86 86 86 86 85 85 84 83 81 79 78 77 76 74 73 71 66 58 53 54 58 59 58 57 56 56 53 49 45 42 42 45 44 43 43 42 41 45 50
12 13 15 16 16 18 20 23 25 27 29 31 33 34 34 36 40 49 60 69 76 82 87 90 90 89 89 89 88 88 88 87 85 83 81 79 78 77 74 72 72 69 62 57 57 59 62 61 59 58 56 52 48 45 45 47 45 40 39 38 36 39 48
11 12 14 15 16 18 19 20 22 24 27 30 32 34 35 36 37 41 49 60 69 76 81 86 90 92 92 92 92 90 89 90 90 88 86 83 81 80 78 75 74 73 71 65 60 58 60 61 60 59 59 56 52 48 45 47 47 43 40 37 34 35 44
13 12 12 12 14 17 19 20 22 23 25 28 31 34 36 38 38 39 42 49 60 69 75 80 86 90 93 94 95 93 90 90 92 92 91 88 85 83 81 79 77 75 74 72 67 62 58 57 58 60 61 59 55 50 48 48 49 47 44 41 37 37 42
14 13 12 12 13 15 17 18 20 22 25 27 30 33 36 39 40 42 42 44 49 58 67 74 80 85 90 93 95 94 91 90 92 93 93 92 90 88 85 82 80 78 76 74 72 69 63 59 57 57 58 57 54 52 52 52 51 49 48 45 41 40 42
14 14 14 13 14 15 16 17 17 19 21 24 28 32 36 39 41 43 45 46 47 50 56 65 72 79 85 90 93 94 92 90 91 92 92 92 92 91 89 86 82 81 80 78 75 72 69 66 62 58 56 55 54 52 53 54 53 51 51 50 46 43 44
14 14 14 15 15 16 17 18 18 18 19 19 22 26 31 36 39 42 45 47 49 50 52 56 62 69 76 83 90 93 92 91 91 92 92 92 92 92 92 90 87 83 82 81 79 75 72 70 68 65 60 57 55 54 54 56 56 54 53 52 50 47 47
16 16 16 16 16 16 17 19 20 20 20 20 21 21 24 29 33 38 42 45 48 51 53 53 55 60 67 74 81 88 92 91 91 93 94 95 94 94 93 93 91 88 84 82 81 80 78 75 72 70 67 62 59 57 57 57 57 56 55 53 51 50 51

ECMWFFLT2_500_spd_078.txt.gz
Wind_Speed
37 37 37 37 36 36 36 36 37 37 37 38 40 41 40 39 39 39 38 37 34 31 30 31 32 31 31 29 25 22 23 21 19 17 15 15 14 13 15 19 23 24 22 19 17 17 17 17 16 15 15 14 15 17 21 23 23 25 27 28 28 27 25
37 38 38 38 37 38 38 37 38 37 36 38 40 41 41 41 41 42 41 39 38 35 33 33 34 33 32 31 28 26 26 24 22 20 18 16 15 15 17 19 22 24 23 21 20 18 18 17 17 16 16 17 17 17 20 23 24 25 27 29 30 29 27
37 38 38 39 39 39 39 39 39 39 39 41 40 41 42 42 43 44 42 41 40 38 34 34 35 35 34 32 31 30 29 26 25 24 22 20 17 16 18 18 19 21 22 22 21 20 20 18 18 18 18 19 18 17 18 21 25 27 29 31 31 30 29
37 38 38 39 39 40 40 40 40 40 41 42 42 43 43 42 43 45 44 43 42 40 36 35 36 37 35 33 32 32 31 29 28 28 26 24 21 17 16 16 16 17 20 21 22 23 24 22 20 20 19 18 18 17 17 19 24 27 29 30 31 31 31
37 37 38 39 39 39 40 40 41 41 41 42 43 44 44 44 44 45 45 45 45 42 40 37 37 37 37 35 33 33 34 32 31 31 28 27 25 21 18 17 16 16 19 22 24 25 26 25 23 21 20 18 18 17 16 17 21 25 28 29 30 31 31
37 38 38 39 39 39 39 40 41 42 42 42 43 44 45 45 45 45 46 47 46 44 43 41 39 38 38 37 36 35 35 35 34 32 30 28 27 25 24 22 20 18 20 23 25 27 26 24 23 22 20 19 18 16 16 16 18 22 26 28 30 31 32
37 37 38 38 39 39 39 40 41 42 42 42 43 44 45 45 46 46 46 47 47 46 45 44 42 41 39 38 38 37 36 35 34 33 31 30 28 29 29 28 25 23 23 26 29 29 28 26 25 24 22 20 18 17 17 16 16 19 24 28 30 31 32
37 37 38 38 38 38 39 39 40 41 41 42 43 43 44 45 46 46 47 47 48 46 45 45 45 44 42 40 38 38 38 37 36 34 33 32 31 31 32 32 30 27 26 28 30 31 31 30 28 27 24 22 21 20 18 16 16 18 23 28 30 31 32
37 38 39 39 38 39 39 40 40 41 41 42 43 43 44 44 45 46 46 47 48 46 45 45 45 44 43 41 39 38 38 38 37 34 33 34 34 34 35 35 34 31 30 29 30 31 33 33 31 30 28 26 24 22 20 18 18 19 23 27 30 31 33
38 40 41 41 41 40 40 41 42 42 42 43 43 44 44 45 45 45 45 46 47 46 45 46 45 43 42 41 39 38 38 39 38 35 34 35 35 36 38 38 36 34 33 32 31 32 33 34 34 32 31 30 28 27 25 23 22 22 24 26 29 32 33
39 40 41 42 43 43 42 42 43 43 44 44 44 44 44 45 45 45 45 46 46 45 45 46 45 43 41 39 38 37 39 39 38 36 36 35 35 36 37 38 38 37 36 35 33 32 32 34 35 34 33 32 31 29 28 26 25 24 25 26 29 32 34
39 41 41 42 43 44 45 44 44 45 45 45 45 46 46 46 46 46 46 46 46 45 44 45 45 44 42 39 36 36 38 39 38 38 37 36 36 36 35 37 38 39 38 38 36 34 33 34 36 37 36 34 33 31 30 29 28 26 25 26 28 31 33
37 40 41 42 43 44 45 46 46 46 46 47 47 47 47 46 46 47 47 47 46 46 45 44 45 45 43 40 37 36 37 38 38 39 39 38 38 36 35 36 38 39 40 39 39 37 35 34 36 38 38 38 36 35 34 32 31 29 27 27 27 29 32
32 36 40 42 43 44 45 46 46 47 47 48 48 48 48 47 47 47 48 47 46 46 45 44 44 44 44 41 38 38 39 39 40 41 41 40 39 38 37 38 39 40 40 40 40 40 37 35 36 38 39 39 38 36 36 35 34 33 30 28 28 29 30
30 32 36 39 43 45 46 47 47 47 48 48 48 49 49 49 48 49 49 48 47 46 45 45 44 45 45 43 40 40 41 43 44 43 42 42 41 40 40 40 41 41 41 40 41 41 40 38 37 38 40 40 38 37 37 37 36 35 33 31 30 29 30
33 33 34 36 39 43 46 48 49 48 49 49 49 49 49 49 50 51 50 49 48 47 46 45 45 45 45 44 42 43 44 46 47 46 44 43 43 42 42 43 43 43 42 41 41 42 41 40 39 40 41 41 40 39 39 39 38 37 36 34 32 31 32
35 36 36 37 37 40 44 48 51 51 50 50 50 50 50 50 51 52 52 51 50 49 48 47 46 46 47 46 45 45 47 48 50 49 46 45 45 45 44 45 45 45 44 43 42 43 43 42 41 41 42 43 43 42 41 41 40 39 37 35 33 32 32
36 37 39 39 39 40 43 46 50 53 54 53 52 53 52 52 52 54 54 53 51 51 50 49 48 48 49 48 47 48 49 50 52 52 49 47 47 47 46 46 47 46 46 45 44 45 46 45 43 42 43 44 44 44 43 43 42 41 39 36 34 33 32
32 34 37 40 42 43 44 46 48 53 56 57 56 55 55 55 54 55 55 55 54 53 53 52 50 50 50 50 50 50 51 52 53 53 51 50 49 49 48 48 47 48 48 47 46 46 47 48 47 45 44 45 46 46 45 45 44 43 41 39 37 36 34
27 29 32 36 40 42 44 46 48 51 56 60 60 59 58 58 58 57 57 57 57 56 55 54 53 52 52 52 52 52 53 54 54 53 53 53 52 51 50 49 49 48 49 48 47 46 47 50 50 48 47 47 47 48 48 48 47 47 45 44 42 39 36
25 26 27 30 34 38 40 44 48 50 54 58 62 63 63 62 60 60 59 58 58 58 57 56 55 54 54 54 54 54 55 57 57 55 54 55 55 54 53 52 51 50 50 50 49 48 47 49 51 52 51 50 50 51 51 50 49 47 46 46 45 43 39
24 25 26 27 30 32 34 37 43 48 52 55 59 63 66 66 63 62 61 61 60 59 59 59 58 57 56 56 56 56 57 58 60 60 57 56 57 57 57 55 54 53 52 52 52 51 50 50 52 54 54 55 55 55 52 48 45 44 45 46 47 46 43
25 26 26 27 28 29 30 33 36 41 48 53 57 61 65 67 67 66 64 63 63 62 61 61 62 61 60 59 59 59 59 60 62 63 62 60 59 59 59 59 57 55 55 54 54 54 53 52 52 54 56 57 58 57 52 46 44 45 46 46 46 47 46
29 28 28 28 28 28 29 31 33 36 40 46 53 58 62 64 67 70 69 67 66 65 65 64 64 64 64 63 62 62 62 62 62 64 64 63 63 63 62 62 61 59 58 57 56 56 55 55 53 54 55 56 57 58 54 47 44 44 45 46 47 47 47
28 28 28 28 27 27 29 31 33 35 36 40 46 52 56 60 65 71 73 73 71 69 68 67 67 67 67 66 65 65 65 65 64 65 65 64 65 65 64 63 64 63 61 60 60 58 57 56 55 54 54 54 56 56 53 49 47 46 45 46 48 46 45
23 24 25 25 24 25 27 29 31 34 37 39 41 44 49 56 61 67 73 76 76 74 72 70 69 70 70 69 68 68 68 68 67 67 67 65 65 66 66 65 65 66 66 64 63 62 60 59 58 57 55 55 54 53 51 50 49 48 46 47 47 45 44
20 20 21 22 22 22 25 28 30 33 36 38 39 41 45 51 56 61 68 73 77 78 76 74 72 72 72 71 70 70 70 71 70 69 69 69 67 67 68 67 65 66 68 69 67 65 63 62 61 60 59 58 56 52 52 53 52 50 49 48 46 42 43
18 18 19 20 20 21 23 25 27 30 32 35 38 42 44 46 50 55 61 67 73 78 80 78 76 75 74 74 73 72 72 73 73 72 72 72 70 68 69 71 68 65 67 70 71 70 67 65 64 63 61 60 57 54 53 53 54 53 52 51 49 45 44
15 16 18 19 19 19 20 21 24 26 28 29 33 37 40 43 46 50 54 60 66 73 79 81 80 79 78 77 75 74 73 74 75 75 74 74 74 72 71 72 73 69 66 68 69 69 70 71 68 65 64 62 58 56 56 55 55 55 54 53 53 51 47
13 14 15 16 17 17 17 19 21 23 24 25 27 30 33 36 39 42 47 52 59 65 72 79 82 82 82 81 79 77 75 75 76 78 77 76 77 76 74 74 74 73 70 68 63 59 61 69 72 69 66 65 63 60 58 56 56 57 56 54 53 52 49
13 13 13 13 14 15 16 17 19 21 22 23 24 26 29 32 34 35 38 43 49 56 63 71 78 82 84 84 82 80 78 77 77 79 80 79 79 79 78 77 77 75 73 73 70 61 54 59 70 74 70 66 66 65 60 55 53 55 56 53 52 51 50
14 14 14 13 12 13 13 13 16 18 21 23 24 26 28 30 33 34 35 37 41 46 53 61 70 76 81 85 86 84 81 79 79 79 81 82 82 81 80 79 80 79 75 75 78 74 62 55 62 71 72 69 68 67 64 57 51 51 54 54 51 50 51
14 14 14 14 14 13 12 11 12 14 17 20 23 26 28 30 32 34 35 36 38 40 44 51 60 68 75 80 85 88 87 84 81 80 81 83 84 84 83 81 81 82 80 77 78 79 72 61 56 57 61 66 68 66 64 61 54 50 52 53 51 50 50
15 15 14 14 15 15 13 12 12 14 15 16 18 21 24 28 31 33 35 37 38 39 40 44 50 58 66 74 80 85 88 89 87 84 83 84 85 85 85 84 83 83 84 82 80 78 77 72 64 55 51 55 63 65 63 60 57 53 52 52 51 50 48
16 17 16 15 15 16 15 13 13 14 15 16 17 19 20 23 25 29 33 36 39 41 42 43 44 49 56 65 73 79 83 88 91 90 87 86 86 86 87 87 86 84 85 86 84 80 77 76 74 68 58 52 56 62 62 59 56 55 54 53 52 49 46
19 19 19 18 17 18 17 15 15 16 15 16 17 19 20 21 23 25 28 32 37 41 44 45 45 45 48 55 65 73 77 81 87 91 91 89 87 87 87 87 87 87 87 88 88 84 80 77 77 76 70 60 55 57 60 59 57 54 54 56 55 51 46
22 20 20 21 20 21 19 18 18 19 18 17 18 19 20 21 22 23 25 27 32 36 40 44 47 47 47 48 55 64 71 75 80 87 91 92 90 89 88 88 88 89 89 90 90 88 84 81 78 77 76 71 64 58 55 56 58 57 56 57 57 55 49

ECMWFFLT2_500_spd_084.txt.gz
Wind_Speed
45 44 44 44 43 43 44 44 45 45 44 44 39 33 32 32 33 33 34 40 42 38 36 38 38 36 34 32 31 31 29 28 26 25 25 25 25 26 25 25 24 23 21 20 20 22 21 20 19 18 17 17 17 19 21 21 22 24 28 31 31 30 27
45 44 42 43 43 44 45 44 45 46 44 43 41 35 33 33 33 31 33 39 41 39 39 40 40 39 36 34 33 32 31 29 28 27 27 26 26 25 24 24 24 24 23 21 20 22 24 23 22 21 20 20 19 20 22 23 22 23 27 31 32 30 28
45 43 41 42 44 44 44 45 47 46 42 40 41 39 37 36 32 27 30 36 38 40 42 41 40 40 38 36 35 33 33 31 30 29 28 27 26 24 23 23 24 25 24 23 21 22 25 26 25 25 24 23 21 21 22 23 24 24 27 31 33 31 29
44 43 42 43 45 44 43 45 47 45 43 43 43 41 38 36 31 27 30 36 38 39 40 39 40 41 40 38 36 34 34 33 32 31 30 28 26 23 22 22 24 25 25 25 24 24 25 26 26 26 26 24 23 22 22 24 25 26 26 29 32 33 31
43 43 44 44 45 44 44 45 47 46 45 44 43 44 42 36 32 28 29 37 41 39 38 39 41 42 41 39 37 35 34 34 34 32 31 29 26 24 23 22 23 24 25 26 27 26 26 26 27 27 26 25 25 24 23 23 25 26 26 27 31 33 32
43 43 43 43 43 44 44 46 47 47 46 45 44 44 44 41 38 32 26 32 40 38 36 39 40 40 41 40 38 36 35 36 35 33 32 30 27 25 24 22 22 23 25 27 27 26 25 25 26 26 26 27 26 25 24 23 24 25 27 27 29 32 33
41 41 41 42 43 43 44 45 45 45 46 47 45 41 40 42 43 39 31 32 39 38 36 38 38 38 39 39 38 37 36 37 37 35 33 31 29 28 26 23 22 22 23 25 26 25 25 26 26 26 26 27 27 27 26 24 23 24 26 27 29 31 33
38 39 40 41 42 43 44 45 45 45 46 47 46 43 41 40 42 44 39 38 40 39 37 38 37 37 38 37 38 38 37 38 38 36 35 34 32 31 29 26 24 23 23 23 24 25 26 27 27 27 27 27 28 29 28 26 24 25 26 27 28 30 31
35 37 38 39 41 43 44 45 45 46 46 45 45 45 44 40 40 43 41 40 42 40 38 39 38 37 37 37 37 38 38 38 39 38 38 37 35 33 32 29 27 25 25 25 25 25 26 28 28 28 28 29 30 30 29 28 27 27 27 27 28 29 31
31 33 36 39 41 42 44 44 45 45 45 45 45 45 45 44 43 42 40 40 43 42 39 40 39 38 38 38 38 38 38 39 39 40 41 39 37 36 35 33 30 28 27 26 26 26 26 28 29 28 29 30 30 31 31 30 30 30 29 27 28 29 31
31 34 38 40 40 40 42 44 45 45 45 46 46 44 45 46 45 44 43 43 43 41 40 40 40 39 38 38 38 39 40 40 41 41 42 42 39 37 37 36 34 32 30 28 27 26 26 27 27 28 29 29 29 31 32 32 31 31 30 28 28 29 31
32 35 36 37 38 39 41 43 44 45 45 46 46 46 46 46 45 45 46 45 43 42 41 41 41 40 39 39 39 39 40 42 43 43 44 44 42 39 39 39 38 36 34 32 30 28 27 27 27 27 28 29 29 30 32 33 33 31 29 28 28 29 30
30 31 32 33 36 38 40 42 43 44 44 45 46 47 47 46 45 46 47 46 46 44 42 42 42 42 41 40 39 40 40 43 45 45 46 47 45 43 42 42 42 40 38 36 34 32 31 30 29 28 28 28 30 31 31 32 33 32 30 28 28 29 30
28 29 30 31 33 35 37 40 42 43 44 45 45 46 47 47 47 47 46 45 47 47 45 44 44 43 43 42 41 40 40 41 44 46 47 48 48 46 45 45 45 44 43 41 39 37 36 34 33 31 29 29 30 32 32 31 32 33 32 30 30 30 30
29 29 29 30 30 32 34 37 39 41 42 43 44 45 46 47 48 48 46 46 47 48 47 47 46 45 45 44 43 42 41 41 42 44 46 47 48 48 47 47 48 48 47 45 43 41 39 38 37 35 34 32 31 32 34 33 31 31 32 33 32 31 31
29 30 30 30 30 31 32 34 36 38 40 42 44 45 45 46 48 47 47 48 49 48 48 48 48 48 47 46 46 45 43 43 42 42 44 45 47 48 48 49 49 50 49 48 47 45 43 42 41 39 38 38 36 34 35 36 34 32 32 33 34 34 33
27 28 29 30 30 31 33 34 34 35 38 40 42 43 43 45 46 46 47 49 49 48 48 49 49 49 49 48 48 47 46 45 44 43 43 44 45 46 48 49 50 50 51 50 50 48 46 45 45 44 43 42 41 39 38 38 37 36 35 34 34 36 36
24 25 27 28 29 32 34 34 33 35 36 37 39 42 43 43 45 47 48 49 47 46 48 50 49 50 50 49 49 49 48 47 46 45 45 44 44 44 45 47 48 49 50 50 50 50 49 47 47 47 47 46 45 43 42 40 39 39 38 36 36 37 38
25 25 26 27 29 31 31 31 33 35 36 37 39 40 41 42 45 47 48 49 47 47 48 49 49 50 50 50 50 49 49 49 48 47 46 46 45 45 44 45 46 46 47 48 49 49 49 49 48 48 48 49 48 47 45 43 42 41 40 39 38 38 39
27 27 28 29 30 29 29 30 32 33 34 36 38 39 41 42 43 45 48 49 49 48 48 49 49 50 50 50 51 50 50 50 49 48 48 47 47 46 45 45 45 45 45 46 47 48 48 48 49 49 48 48 49 49 48 47 45 44 42 41 40 41 42
29 29 31 31 31 31 32 32 32 33 34 35 36 38 40 41 42 44 47 49 49 49 50 50 50 50 50 51 51 51 51 51 51 50 49 48 48 48 47 46 46 46 45 45 45 46 47 46 46 48 49 48 47 49 50 49 48 47 46 44 44 45 44
29 30 32 32 33 35 35 35 35 35 35 36 36 38 40 40 41 43 45 47 48 49 50 51 51 51 52 52 53 53 52 52 52 51 51 50 50 49 48 48 48 47 47 46 46 46 48 47 44 45 48 49 48 46 47 49 50 49 48 48 48 46 43
27 29 30 32 34 36 36 36 37 38 38 39 39 40 42 41 40 41 44 46 47 48 50 51 51 52 52 54 56 55 52 52 52 52 52 52 51 51 50 49 49 49 49 49 48 47 48 50 48 44 44 47 48 47 45 46 48 49 50 51 50 48 44
24 26 27 29 32 34 35 36 38 39 40 41 41 43 45 42 41 43 45 46 47 48 49 50 52 53 54 56 58 56 53 52 53 53 53 53 53 53 52 51 51 51 52 51 51 50 49 50 51 49 46 45 47 48 48 46 47 49 50 50 50 49 47
21 22 23 25 28 30 31 33 35 37 39 40 43 46 46 44 44 46 48 48 48 48 49 50 52 53 54 55 57 57 55 54 54 54 54 54 54 54 53 53 52 52 53 54 53 53 52 52 52 52 50 48 46 48 49 48 48 49 49 48 47 47 48
20 21 22 23 25 26 28 30 32 34 37 40 43 45 45 46 48 49 50 52 52 51 51 51 52 54 54 55 57 58 58 57 56 56 55 55 56 56 55 55 54 53 54 55 56 55 55 54 54 53 53 52 51 49 48 48 49 50 50 49 48 48 48
21 22 23 25 26 27 28 29 30 32 36 39 40 42 43 46 49 50 51 52 53 53 54 54 54 55 55 56 57 58 59 58 58 58 58 57 57 58 58 58 57 55 55 56 57 58 57 57 57 56 54 54 54 54 52 50 49 49 50 50 50 49 49
22 24 25 26 26 26 26 27 28 29 32 34 36 38 40 43 45 46 48 50 52 54 56 56 57 57 57 58 58 59 59 59 59 60 60 60 59 59 60 60 60 59 57 57 58 59 60 60 59 59 58 56 55 55 56 55 53 51 50 51 51 50 50
22 23 24 24 23 23 24 24 25 25 27 29 31 34 36 37 39 41 42 44 46 49 52 54 57 59 60 61 61 61 61 61 61 61 61 61 62 61 62 62 63 62 61 60 60 61 62 62 62 61 61 60 58 56 57 57 57 55 53 53 52 51 51
22 22 22 22 21 21 21 22 22 22 24 26 28 30 31 33 35 37 39 39 40 42 44 47 50 53 58 61 63 65 65 65 64 64 63 63 64 64 63 64 65 65 64 63 63 63 63 64 65 64 64 63 62 60 59 58 58 57 57 56 55 54 53
22 22 22 21 19 19 20 21 20 21 22 23 25 27 28 30 31 33 35 37 37 38 38 39 41 44 48 54 60 64 67 68 69 68 67 67 66 66 66 66 67 68 68 67 66 66 66 66 67 67 67 66 65 64 63 62 60 59 58 58 58 57 56
24 23 22 20 19 18 20 20 19 20 21 22 23 25 26 28 29 30 31 33 34 35 36 37 38 38 41 45 51 58 65 69 71 72 72 72 71 70 69 69 68 69 70 70 69 68 68 69 70 70 69 69 69 67 67 65 64 62 60 59 59 59 58
27 25 24 24 22 21 21 21 18 19 20 21 22 23 24 26 28 29 30 31 32 33 34 35 36 36 36 38 41 48 56 64 69 73 75 76 75 75 73 72 71 71 71 72 72 71 71 71 73 73 72 72 72 71 70 68 67 66 64 62 61 60 60
30 26 27 29 26 24 24 23 20 19 20 21 21 22 22 23 24 26 27 29 30 30 31 32 32 33 33 33 34 36 42 51 60 68 73 76 78 78 78 77 76 74 73 73 74 74 73 73 74 75 75 75 75 74 73 71 70 68 67 66 64 63 62
33 30 31 33 31 28 28 27 25 23 22 22 22 22 22 21 21 22 22 23 23 24 24 24 24 24 24 24 25 27 30 35 43 53 62 71 76 79 81 81 81 80 78 76 76 76 76 76 76 76 77 77 77 77 77 75 73 71 69 68 67 66 65
36 35 34 35 34 33 32 31 29 28 27 25 24 24 23 22 22 22 21 21 20 19 19 18 19 19 19 19 20 22 24 26 30 35 44 54 64 73 79 82 83 84 83 81 79 78 78 78 78 78 78 78 79 79 79 79 77 74 71 69 67 67 68
38 37 36 34 35 35 34 34 34 33 32 30 28 27 26 25 25 24 24 23 22 21 21 20 20 21 21 21 21 22 23 25 26 28 31 37 44 54 64 73 80 84 86 85 84 82 81 80 80 80 80 80 80 80 81 81 81 79 76 72 68 67 67

ECMWFFLT2_500_spd_087.txt.gz
Wind_Speed
48 49 49 51 42 29 32 41 44 41 34 25 23 26 26 25 29 31 32 35 37 35 35 39 37 32 29 28 29 30 28 28 28 26 26 26 24 20 17 17 18 19 20 22 22 21 21 21 21 22 21 21 22 22 23 23 22 22 25 30 32 31 29
47 49 46 51 48 34 29 34 38 36 30 26 25 24 24 25 27 29 33 39 43 39 37 38 38 36 34 31 30 30 30 29 28 27 26 25 23 21 20 21 22 22 21 22 22 20 20 21 23 23 23 23 24 23 24 24 23 23 25 29 32 31 30
47 48 44 46 47 41 35 34 35 31 27 31 34 31 27 26 27 27 28 33 39 40 41 40 39 37 35 33 32 32 31 30 29 28 27 25 24 23 22 23 23 23 22 22 22 23 24 25 25 25 25 25 24 23 23 24 23 23 25 28 30 32 31
47 46 45 43 42 43 41 38 36 28 24 29 33 32 28 25 26 27 25 27 33 39 43 40 37 37 37 35 34 34 33 32 30 29 28 27 25 24 24 24 24 24 23 21 21 24 28 28 25 25 26 25 24 23 22 22 22 22 23 25 28 30 31
47 42 43 41 37 38 41 41 35 26 20 22 27 29 26 21 24 26 26 28 33 37 41 40 35 34 35 37 37 36 34 33 32 31 30 28 26 25 26 26 25 24 25 23 19 20 26 27 23 23 26 25 23 22 21 21 23 23 23 24 25 28 30
40 34 40 43 39 39 40 39 34 26 21 20 24 29 26 22 23 22 25 32 36 35 37 40 39 37 36 37 38 38 36 34 34 33 32 31 28 27 28 28 26 25 26 26 21 19 23 23 20 21 24 24 23 23 22 22 23 23 23 22 23 26 29
29 35 44 45 42 44 42 36 32 26 22 21 23 25 24 25 26 24 28 37 40 38 36 37 39 41 40 38 38 39 38 36 35 35 34 32 31 29 29 29 27 26 26 26 23 22 22 22 20 20 21 23 24 25 25 25 25 24 22 22 23 25 27
27 39 45 42 42 46 41 33 31 29 25 25 27 28 29 29 29 26 30 38 40 39 38 36 36 40 40 39 40 41 40 38 37 37 35 34 33 32 31 30 28 27 26 25 25 26 25 24 22 19 19 23 26 26 27 29 28 25 22 22 24 25 27
30 38 41 42 44 45 38 28 31 37 35 32 33 36 37 34 31 28 29 35 36 34 37 38 37 39 39 39 40 42 42 40 39 38 37 36 35 34 32 31 29 28 27 26 25 26 27 26 23 21 21 23 25 25 27 30 29 27 25 23 23 25 27
29 33 38 42 42 40 39 36 37 42 44 40 35 35 37 36 33 33 34 38 36 32 33 36 37 39 39 38 39 41 42 42 41 39 39 38 37 36 34 32 31 30 29 27 26 24 25 26 25 25 23 19 19 24 28 30 30 28 25 21 21 24 26
25 27 34 39 34 31 39 47 44 42 44 43 38 36 37 36 35 37 40 42 42 37 36 35 35 37 39 38 39 41 42 43 43 41 41 40 39 38 36 35 33 32 32 30 28 25 25 26 25 28 27 20 19 24 27 27 27 26 25 22 22 24 25
27 27 32 36 33 31 41 49 47 43 43 42 40 41 41 39 39 42 41 41 44 44 42 40 36 35 36 37 38 40 41 43 44 44 43 42 42 40 39 38 36 35 34 33 31 28 27 27 26 27 28 27 27 27 24 23 22 23 26 25 23 23 24
32 30 30 35 38 39 43 46 45 44 43 41 43 45 44 42 43 44 42 41 42 43 43 45 42 37 36 37 38 39 41 42 43 45 45 45 44 43 42 41 39 38 37 36 35 32 30 29 28 27 27 28 31 30 26 22 17 18 22 24 24 24 24
34 33 30 32 36 39 40 41 42 44 43 43 44 45 45 44 43 44 43 43 43 42 41 43 43 40 39 39 39 40 41 42 44 45 46 47 46 45 44 43 42 41 40 39 38 36 34 33 31 30 28 27 29 31 31 26 19 17 21 23 26 27 26
32 33 32 31 32 35 37 40 42 42 42 43 43 43 44 44 44 45 43 42 42 42 40 41 40 40 41 41 41 41 42 43 44 44 46 48 48 47 46 45 44 43 42 42 40 39 38 37 35 33 31 29 28 30 32 31 26 23 24 25 26 29 30
30 32 32 31 30 31 34 37 39 39 40 41 42 44 45 45 46 48 46 44 42 40 40 40 39 41 42 42 41 42 42 43 43 44 46 48 49 49 48 47 47 46 45 44 43 42 41 40 39 37 35 32 31 30 31 32 31 28 28 28 26 25 28
30 32 30 30 29 28 30 35 37 38 39 40 43 45 45 45 46 46 48 50 48 43 42 41 41 43 43 41 41 41 42 43 44 44 46 47 49 50 50 50 49 48 48 47 46 45 44 43 42 41 39 37 35 34 33 34 34 32 30 30 28 25 26
29 30 28 28 28 27 31 36 37 36 37 40 42 43 43 45 45 46 48 50 48 46 45 45 45 46 44 42 43 42 42 43 44 44 45 46 48 50 51 51 51 51 50 49 48 47 46 45 45 44 44 42 40 38 37 36 37 36 33 32 32 31 30
26 27 25 27 28 29 33 36 35 33 35 37 39 42 44 44 46 48 48 47 48 48 47 46 45 44 43 43 45 45 45 45 45 45 46 46 47 49 51 52 53 53 53 52 51 50 48 47 48 47 47 46 44 43 41 40 40 40 38 37 35 35 35
23 21 21 25 29 30 32 33 33 33 33 34 36 40 42 41 43 47 48 48 50 49 48 48 47 46 45 45 46 46 46 47 47 46 47 47 47 48 50 52 53 53 54 54 54 53 52 51 50 50 50 50 49 47 45 44 44 43 42 41 40 39 38
23 21 21 24 27 28 30 32 32 32 32 33 34 37 39 40 42 46 47 48 50 49 49 50 50 49 47 47 49 48 48 48 49 48 48 48 48 48 49 51 52 52 53 54 55 55 55 54 53 53 53 53 52 52 50 49 48 47 46 45 44 43 41
25 25 25 25 26 28 30 30 30 30 31 33 33 35 38 39 39 42 46 48 49 48 49 50 50 49 47 48 50 50 49 50 51 50 50 50 49 49 50 50 51 52 52 53 54 55 56 56 56 56 56 56 55 55 54 54 52 51 50 49 47 47 46
27 28 28 27 28 31 31 29 29 29 31 32 32 34 37 39 39 40 43 47 48 46 46 48 49 48 46 48 50 51 50 50 52 52 51 50 50 50 51 51 51 51 51 52 53 53 54 55 56 57 57 57 57 56 56 55 55 54 52 51 50 49 48
29 30 30 29 29 31 32 32 32 32 32 32 33 35 37 40 40 38 39 44 48 45 43 44 45 46 47 50 53 52 50 50 51 51 51 51 51 51 51 51 51 52 52 52 52 52 53 53 55 56 56 57 57 57 56 55 55 54 53 52 51 50 49
29 30 31 30 30 31 32 34 34 34 34 34 36 37 39 40 41 39 38 42 47 46 43 42 44 46 49 52 54 54 51 50 50 51 52 52 53 53 53 52 52 53 53 53 53 53 53 53 53 54 55 56 56 56 56 55 55 54 53 51 51 51 49
28 29 30 30 31 32 33 33 34 34 35 37 39 40 40 40 41 40 39 41 45 46 44 43 44 46 47 49 51 53 53 52 52 53 53 53 53 54 54 54 54 54 54 53 54 54 54 54 54 54 54 55 55 55 55 55 55 54 53 51 51 50 49
27 28 29 31 32 32 32 32 33 34 36 38 39 40 40 41 43 43 42 43 44 45 45 45 45 45 45 46 48 51 53 53 53 54 54 54 54 54 54 55 55 55 55 55 55 55 55 55 55 56 55 55 55 55 55 55 55 54 52 51 51 51 49
26 27 29 30 31 32 31 31 32 33 34 35 37 38 40 42 44 45 45 45 46 47 47 47 47 47 47 47 47 49 51 52 52 53 54 55 55 55 55 56 56 56 56 56 56 56 56 56 56 57 57 57 57 56 56 56 56 56 54 51 50 51 52
25 27 27 28 29 30 31 31 31 31 31 32 34 37 39 42 44 46 46 46 47 48 48 49 51 51 50 50 49 50 51 52 52 52 53 54 56 57 57 58 57 57 57 57 57 57 57 57 57 58 59 59 59 59 58 58 57 57 57 55 52 51 52
26 27 28 28 28 29 29 29 30 30 31 32 34 35 38 40 42 44 45 46 47 48 49 51 53 53 53 53 52 52 53 54 54 53 53 54 55 56 58 59 59 59 59 60 59 58 58 59 59 59 59 60 61 61 61 60 60 60 59 58 57 55 53
28 29 30 30 30 30 30 30 30 31 32 33 33 34 36 37 38 40 42 43 44 46 48 50 52 54 55 55 55 55 56 56 56 56 56 56 56 56 58 59 60 61 61 62 62 61 60 60 60 60 60 60 61 63 63 63 63 62 62 61 60 59 57
30 30 31 32 32 32 32 31 30 31 32 32 31 32 34 35 36 37 38 39 40 42 44 46 48 51 53 54 55 56 57 58 58 58 58 58 59 59 59 60 61 62 62 63 64 64 63 63 63 63 62 61 62 63 64 65 65 65 64 64 63 61 60
30 31 32 32 32 32 31 30 30 31 31 30 29 30 32 33 34 35 36 37 37 38 39 40 42 44 47 49 51 52 54 56 57 58 58 59 59 60 61 62 63 63 64 64 65 66 66 66 65 65 65 64 63 63 64 65 67 67 67 66 66 65 63
32 33 33 33 33 32 30 30 32 33 31 28 28 29 30 30 31 33 34 35 36 36 37 37 38 39 41 43 45 46 48 50 52 53 54 55 57 58 60 63 65 66 66 66 66 67 68 69 69 68 67 67 66 66 65 66 67 68 69 69 68 68 67
34 34 34 35 36 35 33 33 34 34 32 30 29 29 29 29 30 31 32 33 34 35 36 37 37 37 38 39 40 42 43 45 46 47 48 49 51 54 56 59 63 66 68 69 69 69 69 70 70 71 70 70 69 69 68 68 68 68 69 70 71 70 70
35 35 35 36 37 37 36 36 36 36 34 32 32 32 31 30 29 29 30 31 31 32 34 35 36 37 37 37 38 39 40 41 42 43 44 44 46 48 51 54 57 61 65 68 70 72 72 72 72 73 73 72 72 72 71 71 70 70 70 70 71 72 72
35 36 36 37 38 37 37 37 37 37 36 34 33 34 34 33 32 31 31 31 31 31 31 32 33 34 35 35 36 36 37 38 38 39 40 40 41 42 44 46 49 52 56 61 66 70 73 74 75 75 75 75 75 75 74 74 73 73 72 72 72 72 73